Tracking 19283 objects as of 17-Nov-2018
HD Live streaming from Space Station
objects crossing your sky now

COSMOS 618

Track COSMOS 618 now!
10-day predictions
COSMOS 618 is classified as:


NORAD ID: 6986
Int'l Code: 1973-104B
Perigee: 1,450.2 km
Apogee: 1,494.0 km
Inclination: 74.0 °
Period: 115.2 minutes
Semi major axis: 7843 km
RCS: 0.6754 m2 (medium)
Launch date: December 19, 1973
Source: Commonwealth of Independent States (former USSR) (CIS)
Launch site: PLESETSK MISSILE AND SPACE COMPLEX (PKMTR)
aabbcc
Your satellite tracking list
Your tracking list is empty




NASA's NSSDC Master Catalog

Two Line Element Set (TLE):
1  6986U 73104B   18320.58747205 -.00000021 +00000-0 -34851-4 0  9996
2  6986 074.0320 052.8458 0027948 318.6411 147.8358 12.49884589049178
Source of the keplerian elements: AFSPC